Notices

What's New in latest Release from April 7th, 2021:

- Updated Glossary, including Speed of Maximum Gust, and Total Hourly Precipitation

- Updated national and regional climate services offices contacts and prices information

- Addition of station inventory lists for 1981-2010, 1971-2000, and 1961-1990 Normals.

If you haven't already, please take our survey and provide feedback about our website: https://eccc.sondage-survey.ca/f/LanguageSelection.aspx?s=442ca660-fcf1-47c0-95a9-59707d6fd709

Hourly Data Report for December 21, 2019

EUREKA CLIMATE
NUNAVUT
Current Station Operator: ECCC - MSC

79°59'21.000" N
85°56'02.000" W
10.00 m
2401199
71613
NEK

Download Data

Hourly Data (December 2019)
Hourly Data Report for December 21, 2019
TIME
LST
Temp Definition
°C
Dew Point Definition
°C
Rel Hum Definition
%
Precip. Amount Definition
mm

Wind Dir Definition
10's deg

Wind Spd Definition
km/h
Visibility Definition
km
Stn Press Definition
kPa
Hmdx Definition


Wind Chill Definition


Weather Definition


00:00 -28.2 -30.9 77 0.0 11 18   101.73   -40 LegendNANA
01:00 -28.7 -31.6 76 0.0 12 22   101.71   -42 LegendNANA
02:00 -28.5 -31.4 76 0.0 5 10   101.72   -37 LegendNANA
03:00 -30.8 -34.0 74 0.0 3 14   101.69   -42 LegendNANA
04:00 -31.0 -34.0 75 0.0 13 4   101.69   -36 LegendNANA
05:00 -32.1 -35.3 74 0.0 11 10   101.65   -42 LegendNANA
06:00 -32.4 -35.5 74 0.0 3 9   101.60   -41 LegendNANA
07:00 -33.7 -37.0 72 0.0 3 11   101.50   -44 LegendNANA
08:00 -32.5 -35.7 74 0.0 11 6   101.46   -39 LegendNANA
09:00 -32.6 -35.7 73 0.0 13 2   101.40   -35 LegendNANA
10:00 -33.4 -36.6 73 0.0 12 6   101.32   -40 LegendNANA
11:00 -32.7 -35.8 74 0.0 12 8   101.26   -41 LegendNANA
12:00 -32.2 -35.3 74 0.0 11 6   101.20   -39 LegendNANA
13:00 -32.0 -35.0 74 0.0 0 1   101.12   -33 LegendNANA
14:00 -31.8 -34.8 75 0.0   0   101.07     LegendNANA
15:00 -32.3 -35.4 74 0.0 13 5   101.06   -38 LegendNANA
16:00 -32.4 -35.5 74 0.0 13 4   101.07   -37 LegendNANA
17:00 -32.5 -35.6 74 0.0 10 5   101.03   -38 LegendNANA
18:00 -32.0 -35.1 74 0.0 10 10   101.01   -42 LegendNANA
19:00 -30.6 -33.5 75 0.0 10 5   100.97   -36 LegendNANA
20:00 -30.2 -33.1 76 0.0 11 3   100.93   -34 LegendNANA
21:00 -29.9 -32.7 76 0.0 10 7   100.94   -37 LegendNANA
22:00 -28.8 -31.5 77 0.2 8 6   100.91   -35 LegendNANA
23:00 -30.0 -32.9 76 0.0 8 9   100.93   -39 LegendNANA

Notes on Data Quality.

Legend

  • E = Estimated
  • M = Missing
  • NA = Not Available*
  • [empty] = Indicates an unobserved value
Date modified: